Lid_Strength_Index
6 9 11 10 7 6 5 4 4 6 4 6 6 3 2 1 0 0 1 -0 -1 -1 -1 -1 -1 -1 -1 -1 -1 -1 -1 -1
8 9 8 7 6 5 5 4 4 4 7 5 3 2 1 0 0 0 1 -0 -1 -1 -1 -1 -1 -1 -1 -1 -1 -1 -1 -1
8 8 7 5 4 4 5 5 5 4 8 7 2 1 1 0 0 1 1 -0 -1 -1 -1 -1 -1 -1 -1 -1 -1 -1 -1 -1
9 9 6 5 4 4 5 5 5 5 6 6 3 2 1 0 0 0 0 -0 -0 -1 -1 -1 -1 -1 -1 -1 -1 -1 -1 -1
8 8 7 6 4 5 5 5 5 4 7 5 3 1 1 0 0 0 0 -0 -0 -1 -1 -1 -1 -1 -1 -1 -1 -1 -1 -1
7 8 7 5 5 4 4 5 3 2 6 6 4 1 1 1 1 0 0 0 -0 -0 -1 -1 -1 -1 -1 -1 -1 -1 -1 -1
7 7 6 4 5 4 3 4 3 3 3 3 2 1 1 1 1 1 1 0 0 -0 -0 -1 -1 -1 -1 -1 -1 -1 -1 -1
5 5 6 5 5 4 4 4 4 4 2 2 2 2 2 2 2 2 1 1 0 -0 -0 -0 -0 -1 -1 -1 -1 -1 -1 -1
5 5 5 5 5 4 5 5 4 4 4 3 2 2 2 2 2 2 1 1 0 0 -0 -0 -0 -0 -0 -1 -1 -1 -1 -1
5 4 4 5 4 5 4 4 3 3 2 2 3 3 2 3 2 2 1 1 0 0 0 -0 -0 0 -0 -0 -0 -0 -0 -1
4 5 5 4 5 5 4 3 3 2 2 3 2 2 2 1 1 1 2 1 1 0 0 -0 -1 -0 -0 -0 -0 -0 -1 -1
4 5 4 5 5 4 4 3 3 3 3 3 2 2 2 2 1 1 1 1 0 0 0 -0 -0 -1 -1 -1 -1 -1 -1 -0
5 5 5 5 7 6 4 3 3 3 3 2 2 2 2 2 1 1 1 1 0 0 0 -0 -0 -0 -0 -1 -0 -0 -0 -1
5 5 5 5 8 5 3 4 4 3 3 3 2 2 1 1 1 1 1 1 0 0 0 0 -0 0 -0 -0 -0 -0 -0 -1
7 5 5 5 7 5 3 4 4 4 3 3 3 2 0 1 1 1 1 1 1 0 0 1 0 0 0 -0 -0 -0 -0 -0
8 6 6 6 7 5 4 4 4 4 4 4 3 3 2 2 1 0 1 1 1 1 0 0 0 0 0 0 0 -0 -0 -0
7 5 6 6 6 5 5 4 5 5 4 4 4 3 2 2 1 1 1 0 1 1 1 0 1 2 1 2 1 0 0 -1
7 6 6 6 8 7 7 6 5 5 5 5 4 4 3 2 2 2 1 0 0 0 1 1 1 0 0 1 1 0 1 1
8 6 6 7 11 11 7 5 5 4 4 4 4 4 3 3 3 2 2 2 1 -0 0 0 0 0 0 0 0 1 2 1
7 8 10 7 15 11 8 6 6 5 4 4 4 3 3 3 3 2 2 1 1 1 1 0 -0 1 1 2 3 2 2 2